Das Wetter in  D-61279 Heinzenberg / Taunus





Wetter Minimum- & Maximum-Werte im Februar 2014

Standort: Heinzenberg / Taunus - Höhe 297 m         8° 24' 1" Ost 50° 21' 51" Nord
(   3-stündige Aktualisierung    letzte Aktualisierung um 20:46 am 28.02.2014  )


Messgrösse

Minimum

Maximum

Durchschnitt

Temperatur West /
Luftfeuchte West
Anklicken für Monats-Diagramm

-2,1 °C

04:49
03.02.2014

45 %

15:43
24.02.2014

14,0 °C

15:48
24.02.2014

91 %

08:54
02.02.2014

Temp

4,9 °C

Feuchte

77 %

Temperatur Ost /
Luftfeuchte Ost
Anklicken für Monats-Diagramm

-1,9 °C

04:29
03.02.2014

--

--
--

16,5 °C

13:58
24.02.2014

--

--
--

4,9 °C

--

Luftdruck Anklicken für Monats-Diagramm

991,8 hPa

14:43
13.02.2014

1024,2 hPa

07:47
23.02.2014

1008,6 hPa

Taupunkt

-3,8 °C

04:49
03.02.2014

5,7 °C

03:55
21.02.2014

1,1 °C

Windchill
( gefühlte Temperatur )

-12,6 °C

01:23
01.02.2014

12,7 °C

16:28
24.02.2014

0,4 °C

Windgeschwindigkeit /
Windrichtung
Anklicken für Monats-Diagramm

---

61,1 km/h / W-SW

12:42
07.02.2014

13,0 km/h
W-SW

Helligkeit /
Sonnenschein
Anklicken für Monats-Diagramm
Anklicken für Monats-Diagramm

Sonnenschein:

59:25 Stunden

Max: 9:15 Std am
24.02.2014

70,6 klux

12:47
23.02.2014

13,8 klux

Solarstrahlung Anklicken für Monats-Diagramm

---

483 W/m²

12:47
23.02.2014

104 W/m²

Regenmenge
    Februar 2014
Anklicken für Monats-Diagramm

Insgesamt 26,1 l/m²

in 44:53 Stunden
an 18 Tagen

10,5 l/m²

13:18
13.02.2014

Gesamtmenge

26,1 l/m²

Regen-Tage
    Februar 2014
Anklicken für Monats-Diagramm

>   0 mm/Tag

>   2 mm/Tag

>   5 mm/Tag

> 10 mm/Tag

> 20 mm/Tag

18 Tage     
3 Tage     
2 Tage     
  1 Tag     
0 Tage     

Eisige Tage Februar 2014 / 2013

Tmin ≤ -10°C     

0 Tage

/

  1 Tag

Eistage Februar 2014 / 2013

Tmax <     0°C     

0 Tage

/

6 Tage

Frosttage Februar 2014 / 2013

Tmin ≤     0°C     

9 Tage

/

21 Tage

Kalte Tage Februar 2014 / 2013

Tmax <   10°C     

21 Tage

/

28 Tage

Warme Tage Februar 2014 / 2013

Tmax ≥   20°C     

0 Tage

/

0 Tage

Sommertage Februar 2014 / 2013

Tmax ≥   25°C     

0 Tage

/

0 Tage

Heisse Tage Februar 2014 / 2013

Tmax ≥   30°C     

0 Tage

/

0 Tage


Monatsdiagramm Februar 2014

Die Kurven zeigen den Durchschnittswert des jeweiligen Tages an


Wetter-Monatsübersicht Februar 2014
Datum
  Temperatur
   Luftdruck
   Wind
  Regen
   Luftfeuchte
   Helligkeit

Sonnen-
schein

Ø
Temp.

Min.
Temp.

Max.
Temp.

Ø
Luftdruck

Min.
Luftdruck

Max.
Luftdruck

Ø-Geschw.
Haupt-Richtg.

Max.
Wind

Menge /
Dauer

Ø
Feuchte

Min.
Feuchte

Max.
Feuchte

Ø
Helligkeit

Max.
Helligkeit

1.
Februar
2,7 °C-1,1 °C
03:53
5,4 °C
11:28
1004,2 hPa1001,1 hPa
10:08
1008,4 hPa
22:58
11,6 km/h
W-SW
32,5 km/h
09:03  
6,1 l/m²
6:45 Stunden
82 %66 %
10:48
89 %
21:53
3,0 klux6,5 klux
11:18
--- 
2.
Februar
3,5 °C0,1 °C
23:59
8,5 °C
16:33
1013,9 hPa1008,4 hPa
00:03
1019,2 hPa
23:59
3,4 km/h
W-SW
20,8 km/h
13:28  
---
84 %69 %
16:38
91 %
08:54
18,71 klux48,30 klux
12:03
4:49 Std 
3.
Februar
0,8 °C-2,1 °C
04:49
3,4 °C
14:19
1013,8 hPa1009,5 hPa
15:34
1019,5 hPa
03:24
4,0 km/h
O-SO
24,6 km/h
17:44  
---
87 %83 %
18:14
91 %
11:49
5,2 klux20,3 klux
12:14
--- 
4.
Februar
2,3 °C-1,1 °C
05:15
6,6 °C
16:15
1010,7 hPa1008,5 hPa
22:25
1012,7 hPa
11:10
4,6 km/h
O-SO
22,6 km/h
21:20  
---
84 %74 %
16:10
90 %
07:05
7,7 klux21,2 klux
14:25
25 Min 
5.
Februar
2,9 °C-0,6 °C
08:25
7,2 °C
12:55
1002,5 hPa998,6 hPa
14:05
1008,6 hPa
00:00
12,9 km/h
O-SO
29,6 km/h
12:20  
---
84 %73 %
13:55
88 %
10:40
7,0 klux43,0 klux
12:30
20 Min 
6.
Februar
6,6 °C4,8 °C
08:21
9,1 °C
15:21
1004,7 hPa997,5 hPa
23:47
1008,1 hPa
09:06
17,5 km/h
W-SW
33,8 km/h
00:11  
---
35 Minuten
76 %63 %
23:57
85 %
07:01
13,0 klux47,2 klux
13:56
1:40 Std 
7.
Februar
8,6 °C4,2 °C
23:38
11,0 °C
11:47
998,2 hPa993,0 hPa
10:17
1006,2 hPa
23:38
29,9 km/h
W-SW
61,1 km/h
12:42  
0,2 l/m²
30 Minuten
65 %52 %
02:47
77 %
23:38
8,0 klux51,1 klux
11:37
40 Min 
8.
Februar
5,4 °C3,7 °C
01:18
8,1 °C
13:33
997,7 hPa992,5 hPa
22:49
1006,2 hPa
00:28
18,9 km/h
W-SW
35,8 km/h
23:19  
0,2 l/m²
3:09 Stunden
75 %61 %
13:33
85 %
19:53
6,6 klux30,5 klux
11:43
--- 
9.
Februar
4,3 °C1,9 °C
23:00
6,1 °C
13:24
997,5 hPa993,6 hPa
00:04
1001,3 hPa
23:00
24,6 km/h
W-SW
47,4 km/h
12:54  
---
1:15 Stunden
75 %61 %
15:54
82 %
08:24
12,9 klux54,4 klux
13:39
2:00 Std 
10.
Februar
2,2 °C-1,0 °C
03:35
5,3 °C
13:50
997,3 hPa993,6 hPa
13:50
1001,6 hPa
02:55
9,8 km/h
O-SO
26,8 km/h
13:05  
---
3:14 Stunden
78 %62 %
14:16
87 %
22:51
6,6 klux21,5 klux
11:00
--- 
11.
Februar
4,2 °C1,9 °C
00:01
7,8 °C
16:06
1003,9 hPa999,2 hPa
00:41
1006,2 hPa
10:26
17,5 km/h
W-SW
38,6 km/h
15:41  
---
1:35 Stunden
75 %59 %
15:41
88 %
00:36
12,4 klux52,6 klux
13:46
1:51 Std 
12.
Februar
4,6 °C1,8 °C
08:22
7,6 °C
15:27
1007,5 hPa1001,7 hPa
22:17
1011,6 hPa
09:02
18,5 km/h
W-SW
43,9 km/h
21:57  
1,2 l/m²
3:25 Stunden
73 %59 %
22:23
86 %
04:02
23,4 klux63,1 klux
12:32
6:05 Std 
13.
Februar
4,2 °C2,2 °C
15:43
6,3 °C
12:03
998,3 hPa991,8 hPa
14:43
1003,2 hPa
23:44
21,7 km/h
W-SW
40,3 km/h
02:58  
10,5 l/m²
6:55 Stunden
84 %72 %
00:03
89 %
17:18
4,2 klux9,2 klux
10:23
--- 
14.
Februar
4,2 °C1,5 °C
07:54
6,6 °C
15:34
1006,6 hPa999,8 hPa
23:55
1010,6 hPa
08:24
16,9 km/h
W-SW
40,3 km/h
17:19  
0,8 l/m²
1:05 Stunden
78 %70 %
15:29
84 %
09:19
14,9 klux50,8 klux
11:14
2:30 Std 
15.
Februar
8,7 °C5,9 °C
00:00
10,3 °C
02:55
1001,3 hPa997,2 hPa
04:35
1006,9 hPa
23:41
25,5 km/h
W-SW
42,9 km/h
21:05  
---
74 %68 %
11:50
80 %
20:35
6,4 klux14,1 klux
10:50
--- 
16.
Februar
6,2 °C4,1 °C
21:16
9,3 °C
16:21
1010,3 hPa1006,9 hPa
00:16
1013,5 hPa
21:16
22,7 km/h
W-SW
52,1 km/h
11:16  
0,5 l/m²
2:11 Stunden
75 %61 %
16:36
81 %
01:16
18,8 klux68,4 klux
14:06
3:39 Std 
17.
Februar
3,5 °C-1,3 °C
05:52
9,2 °C
15:02
1016,0 hPa1013,5 hPa
00:02
1019,2 hPa
23:52
4,2 km/h
W
23,4 km/h
12:52  
---
80 %69 %
15:22
89 %
09:47
16,7 klux65,6 klux
12:42
3:00 Std 
18.
Februar
2,4 °C-2,1 °C
07:37
7,9 °C
16:07
1016,0 hPa1013,0 hPa
16:07
1019,3 hPa
02:07
1,4 km/h
SO
11,5 km/h
16:22  
---
81 %67 %
17:12
89 %
11:02
12,0 klux36,6 klux
13:17
5 Min 
19.
Februar
6,8 °C3,2 °C
23:19
10,7 °C
15:33
1013,9 hPa1012,2 hPa
05:18
1016,7 hPa
23:19
11,5 km/h
W
36,8 km/h
10:53  
1,4 l/m²
2:25 Stunden
77 %61 %
15:38
85 %
06:13
18,9 klux61,3 klux
12:08
2:25 Std 
20.
Februar
7,1 °C2,8 °C
01:29
10,9 °C
14:59
1012,3 hPa1006,7 hPa
23:20
1016,8 hPa
01:29
12,9 km/h
W-SW
35,6 km/h
12:09  
---
76 %62 %
16:29
86 %
02:34
17,7 klux64,4 klux
12:54
2:05 Std 
21.
Februar
6,5 °C2,9 °C
21:20
9,2 °C
12:55
1008,3 hPa1005,8 hPa
02:15
1013,6 hPa
21:40
17,2 km/h
W-SW
47,6 km/h
11:25  
2,7 l/m²
3:30 Stunden
80 %65 %
12:40
88 %
03:55
17,2 klux69,6 klux
12:50
2:40 Std 
22.
Februar
4,0 °C2,0 °C
07:11
6,0 °C
12:11
1016,0 hPa1013,5 hPa
00:56
1020,8 hPa
23:57
10,1 km/h
W-SW
32,6 km/h
12:06  
0,3 l/m²
50 Minuten
81 %74 %
12:21
84 %
20:36
15,1 klux65,2 klux
12:01
2:55 Std 
23.
Februar
5,1 °C1,2 °C
06:47
8,6 °C
13:07
1022,3 hPa1020,8 hPa
00:02
1024,2 hPa
07:47
6,1 km/h
W-SW
30,2 km/h
10:52  
---
75 %64 %
13:12
85 %
01:22
21,5 klux70,6 klux
12:47
3:00 Std 
24.
Februar
5,6 °C-1,3 °C
03:18
14,0 °C
15:48
1017,2 hPa1013,3 hPa
15:53
1021,4 hPa
01:38
8,8 km/h
O-SO
25,3 km/h
08:18  
---
67 %45 %
15:43
86 %
04:38
29,5 klux51,4 klux
12:43
9:15 Std 
25.
Februar
6,5 °C-0,2 °C
05:54
11,4 °C
13:34
1013,1 hPa1011,5 hPa
13:34
1015,7 hPa
00:04
11,1 km/h
W-SW
38,9 km/h
11:29  
---
20 Minuten
68 %58 %
13:24
82 %
07:04
17,6 klux52,9 klux
13:24
3:21 Std 
26.
Februar
8,1 °C5,2 °C
23:55
10,0 °C
13:14
1016,2 hPa1012,9 hPa
02:59
1020,6 hPa
23:55
5,0 km/h
W-SW
17,9 km/h
07:55  
0,2 l/m²
20 Minuten
71 %66 %
00:04
82 %
22:55
11,4 klux50,4 klux
10:49
30 Min 
27.
Februar
4,9 °C0,5 °C
07:50
9,2 °C
12:30
1016,7 hPa1010,4 hPa
22:30
1021,2 hPa
07:50
8,5 km/h
W-SW
33,5 km/h
12:40  
1,1 l/m²
3:19 Stunden
77 %57 %
12:35
88 %
08:40
23,2 klux59,6 klux
12:50
4:40 Std 
28.
Februar
5,0 °C2,3 °C
07:50
7,7 °C
15:15
1004,6 hPa1000,7 hPa
17:20
1010,4 hPa
00:05
7,7 km/h
O-SO
24,7 km/h
10:30  
1,2 l/m²
3:30 Stunden
80 %73 %
15:45
87 %
04:15
15,8 klux66,7 klux
11:20
1:30 Std 



Februar
2014

Temperatur

  

Luftdruck

  

Wind

  

Regen

  

Luftfeuchte

  

Helligkeit

Sonnen-
schein

Ø

Min

Max

Ø

Min

Max

Ø

Max

Max

Ø

Min

Max

Ø

Max

Max

4,9 °C

-2,1 °C

04:49 Uhr
03.02.2014

14,0 °C

15:48 Uhr
24.02.2014

1008,6 hPa

991,8 hPa

14:43 Uhr
13.02.2014

1024,2 hPa

07:47 Uhr
23.02.2014

13,0 km/h

W-SW

61,1 km/h

12:42 Uhr
07.02.2014

10,5 l/m²

6:55 Stunden
13.02.2014

77 %

45 %

15:43 Uhr
24.02.2014

91 %

08:54 Uhr
02.02.2014

13,8 klux

70,6 klux

12:47 Uhr
23.02.2014

9:15 Std

am
24.02.2014

Gesamt

Gesamt

26,1 l/m²

18 Tage
44:53 h

59:25 Std


Wetter-Diagramme Februar 2014     Heinzenberg / Taunus   
TemperaturLuftfeuchte
SolarstrahlungLuftdruck
HelligkeitSonnenschein
RegenmengeRegendauer
Wind-GeschwindigkeitWind-Richtung